Regional Weather Roundup
Issued by NWS

Home | Current Version | Previous Version | Graphics & Text | Print | Product List | Glossary On
Versions: 1 2 3 4 5 6 7 8 9 10 11 12 13 14 15 16 17 18 19 20 21 22 23 24 25 26 27
000
ASUS45 KTFX 271010
RWRMT
MONTANA REGIONAL WEATHER ROUNDUP
NATIONAL WEATHER SERVICE GREAT FALLS MT
400 AM MDT SAT AUG 27 2016

NOTE: "FAIR" INDICATES FEW OR NO CLOUDS BELOW 12000 FEET WITH NO
SIGNIFICANT WEATHER AND/OR OBSTRUCTIONS TO VISIBILITY.

MTZ001>007-043-271100-
WEST OF THE DIVIDE

CITY           SKY/WX    TMP DP  RH WIND       PRES   REMARKS
KALISPELL      CLOUDY    55  49  80 N9        29.83F
MISSOULA         N/A     58  39  49 SE7       29.92S
BUTTE          CLOUDY    43  30  60 CALM      30.04S
MULLAN PASS      N/A     56  33  42 VRB6      30.00F
DEER LODGE       N/A     52  34  50 CALM      30.00S
EUREKA           N/A     64  43  45 SE10      29.78F
HAMILTON         N/A     57  34  41 S14       29.93S
LIBBY            N/A     57  43  58 CALM      29.80F
PLAINS           N/A     54  41  61 MISG      29.86
RONAN            N/A     55  46  71 CALM      29.91F
$$

MTZ008-052>055-271100-
SOUTHWEST MONTANA

CITY           SKY/WX    TMP DP  RH WIND       PRES   REMARKS
BOZEMAN        MOCLDY    45  37  73 SE5       29.98F
DILLON         CLOUDY    50  30  46 SW10      30.01F
W YELLOWSTONE  CLOUDY    32  25  74 CALM      30.12S
ENNIS          CLEAR     43  28  56 CALM      30.06F
THREE FORKS      N/A     42  42 100 CALM      29.97S
TWIN BRIDGES     N/A     44  31  60 SE3       30.00S
$$

MTZ009-010-012-014-046-048-049-054-271100-
EAST SLOPES AND CENTRAL MONTANA

CITY           SKY/WX    TMP DP  RH WIND       PRES   REMARKS
CUT BANK       CLOUDY    54  39  57 S3        29.81F
GREAT FALLS    PTCLDY    60  35  39 S13       29.86F
HELENA         PTCLDY    54  36  50 CALM      29.92F
CHOTEAU          N/A     59  39  47 SW8       29.87S
CONRAD           N/A     54  47  77 S5        29.87F
$$

MTZ011-013-016-021-045-047-050-051-271100-
NORTH CENTRAL MONTANA

CITY           SKY/WX    TMP DP  RH WIND       PRES   REMARKS
HAVRE          PTCLDY    47  42  83 CALM      29.81F
LEWISTOWN      CLOUDY    45  39  79 SE7       29.91F
N BAR RANCH      N/A     46  37  71 N6        29.96F
CHINOOK          N/A     52  45  76 E6        29.82F
$$

MTZ017>020-022>027-061-062-271100-
NORTHEAST MONTANA

CITY           SKY/WX    TMP DP  RH WIND       PRES   REMARKS
GLASGOW        CLEAR     48  43  82 E8        29.88F
JORDAN           N/A     40  38  93 CALM      29.91F
SIDNEY         PTCLDY    45  43  93 CALM      29.92F
WOLF POINT     CLEAR     41  38  89 CALM      29.92F
POPLAR           N/A     45  41  87 CALM      29.92S
SCOBEY           N/A     41  36  82 CALM      29.90
$$

MTZ028>42-056>058-271100-
SOUTHCENTRAL AND SOUTHEAST MONTANA

CITY           SKY/WX    TMP DP  RH WIND       PRES   REMARKS
BAKER          PTCLDY    45  43  93 SE8       29.95F
BILLINGS       PTCLDY    53  41  63 SW3       29.94F
LIVINGSTON     CLOUDY    43  36  76 NW8       29.98F
MILES CITY     CLEAR     53  42  66 SE3       29.93F
EKALAKA          N/A     57  44  62 CALM      29.95
FORSYTH          N/A     54  52  94 SE5       29.91F
LAUREL           N/A     47  36  65 CALM      29.94F
ROUNDUP          N/A     47  40  76 SW6       29.86S
$$

REGIONAL REPORTS...DAKOTAS

CITY           SKY/WX    TMP DP  RH WIND       PRES   REMARKS
WILLISTON      CLOUDY    47  42  83 CALM      29.91F
MINOT          MOCLDY    58  54  86 SW7       29.89F
DICKINSON      MOCLDY    50  47  89 S10       29.92F
CROSBY           N/A     46  46 100 SW8       29.92F
WATFORD CITY     N/A     46  46 100 SW6       29.92F
BISMARCK       CLOUDY    53  52  96 E5        29.94F
GRAND FORKS    CLOUDY    58  55  90 SE7       29.96F
FARGO          CLOUDY    63  57  81 S9        29.99S
BUFFALO SD       N/A     52  49  89 E6        29.91F
RAPID CITY     LGT RAIN  54  51  90 W3        30.00S
$$

REGIONAL REPORTS...WYOMING/IDAHO/WASHINGTON

CITY           SKY/WX    TMP DP  RH WIND       PRES   REMARKS
GILLETTE       MOCLDY    54  50  86 S18       29.99F
SHERIDAN       CLOUDY    51  45  79 CALM      29.97F
BUFFALO WY     CLOUDY    55  42  61 S13       30.02F
CODY           CLEAR     52  41  66 SW7       30.00F
YELLOWSTONE LA   N/A     34  29  82 CALM      30.19S
IDAHO FALLS    CLOUDY    45  36  70 CALM      30.02S
SALMON         PTCLDY   N/A N/A N/A MISG        N/A
BOISE            N/A     62  34  35 SE8       29.91S
SPOKANE        MOCLDY    70  39  32 S13       29.78F
$$

REGIONAL REPORTS...ALBERTA

CITY           SKY/WX    TMP DP  RH WIND       PRES   REMARKS
EDMONTON       PTCLDY    59  52  77 S8        29.61F
CALGARY        MOCLDY    54  48  82 S8        29.69F
LETHBRIDGE     PTCLDY    59  45  58 SW12      29.71F
MEDICINE HAT   PTCLDY    63  45  51 S16G25    29.70F
CARDSTON         N/A     57  43  58 S3          N/A
MILK RIVER       N/A     50  39  66 SE3         N/A
ONEFOUR          N/A     48  43  81 E9          N/A
$$

REGIONAL REPORTS...SASKATCHEWAN

CITY           SKY/WX    TMP DP  RH WIND       PRES   REMARKS
SWIFT CURRENT  CLEAR     46  43  87 S12       29.82F
REGINA         CLEAR     45  45 100 S2        29.87S
SASKATOON      CLEAR     48  48 100 SE6       29.83F
CYPRESS HILLS    N/A     46  39  76 S7          N/A
VAL MARIE        N/A     37  36  93 E3          N/A
ROCKGLEN         N/A     45  41  87 S6          N/A
$$




USA.gov is the U.S. government's official web portal to all federal, state and local government web resources and services.